Theta_e
288 289 290 290 290 290 290 291 291 292 292 292 293 293 294 293 293 293 292 292 291 291 291 290 290 291 291 290 290 290 289 290 292 284 287 288 287 286 284 284 284 283 283
287 288 288 288 288 287 287 288 289 290 291 290 290 290 291 291 292 292 291 290 290 289 290 289 289 289 289 289 289 288 288 288 289 282 283 284 285 285 283 281 280 281 282
286 286 286 287 286 285 285 286 287 287 288 289 288 288 288 289 289 290 290 289 289 289 289 288 287 288 287 287 287 287 287 283 286 285 281 282 283 284 282 281 281 281 280
285 284 284 285 285 284 284 285 285 285 285 286 287 287 287 287 287 288 287 288 288 288 288 288 288 287 286 286 286 286 285 285 284 285 281 280 280 281 281 279 278 280 280
284 283 283 284 284 283 282 283 284 284 284 285 285 285 286 286 285 286 286 286 286 286 287 287 287 287 287 288 285 285 285 284 283 283 282 279 278 277 277 280 279 280 280
283 282 283 282 282 281 281 281 283 281 282 283 283 283 284 284 286 288 287 285 285 284 284 286 285 285 286 288 289 289 287 284 283 282 282 280 279 279 279 279 279 279 277
282 282 282 281 280 280 280 279 280 279 280 280 281 282 282 283 286 287 288 285 285 285 284 284 284 284 284 284 287 289 289 289 289 285 283 282 280 279 279 280 279 279 280
281 281 281 280 279 279 278 278 277 278 278 278 280 281 281 282 285 286 287 286 285 285 285 284 284 284 284 283 283 284 284 285 286 286 285 285 284 282 282 281 281 281 280
280 280 280 280 278 278 276 276 276 276 276 276 278 278 279 281 284 285 285 285 284 284 285 285 285 284 286 287 282 282 283 283 286 289 288 288 287 285 284 281 278 277 276
278 279 279 279 277 276 276 275 275 274 275 275 275 276 277 278 282 283 284 283 283 283 284 284 285 284 286 286 283 281 281 281 282 282 283 284 284 284 285 281 280 277 275
277 277 276 277 276 276 275 274 273 272 272 272 272 273 275 277 278 282 284 282 282 282 283 283 284 287 287 286 286 282 282 283 283 281 280 280 280 281 281 280 280 279 276
273 272 271 272 272 272 271 271 270 270 269 269 270 271 274 276 279 281 283 284 284 282 282 283 284 287 286 286 285 285 285 285 281 280 277 277 278 278 279 279 279 279 278
266 265 265 266 267 267 267 267 267 268 267 267 268 269 271 274 277 281 283 283 284 282 282 284 286 286 286 285 286 286 283 282 279 278 276 277 278 279 279 277 276 276 276
261 261 262 262 262 263 264 265 264 264 264 265 266 267 269 271 274 277 279 280 281 281 281 282 283 285 285 283 281 283 282 282 280 278 278 279 278 276 274 274 272 272 271
260 261 261 261 261 262 262 262 263 264 264 263 264 266 266 266 269 274 276 278 279 279 279 279 280 281 279 279 279 280 281 281 279 278 278 277 274 273 272 273 272 271 269
259 260 260 260 261 261 261 261 265 267 268 269 270 269 268 272 274 275 276 278 279 281 279 277 278 278 277 277 278 278 279 280 278 278 277 274 272 272 271 271 271 269 269
259 259 260 260 260 260 260 260 259 262 267 268 269 270 271 272 273 274 276 277 279 280 279 278 277 277 277 277 278 278 278 277 277 275 273 272 271 271 270 269 269 269 269
259 259 259 260 260 261 261 260 260 260 259 260 265 267 269 270 272 273 275 276 275 277 279 278 278 278 277 277 278 278 276 274 273 273 272 272 271 270 269 268 268 268 268
259 259 260 261 261 262 262 261 261 261 261 261 262 265 266 269 271 273 275 272 275 277 278 278 279 278 277 278 277 275 275 272 273 272 271 270 270 269 268 268 268 268 267
260 260 261 261 262 262 262 262 262 262 262 262 262 263 265 266 266 268 273 274 274 275 278 278 278 278 278 275 274 273 272 272 270 270 269 269 269 268 267 267 266 266 265
260 261 261 262 262 262 262 263 264 264 264 264 264 265 270 269 270 272 273 274 275 278 279 277 275 275 274 273 271 271 270 269 269 268 267 267 267 266 267 267 266 266 265
260 260 261 261 262 262 263 264 264 264 264 266 266 267 272 270 270 270 270 271 274 274 274 274 273 273 272 271 270 269 268 266 266 266 265 265 266 266 266 266 265 265 264
260 260 260 261 261 262 262 262 262 263 263 263 263 263 263 263 263 264 264 265 266 266 268 268 267 267 268 268 268 268 266 265 266 266 264 264 264 264 265 264 264 264 264
259 259 259 259 260 260 261 261 261 261 261 261 261 261 261 261 261 262 262 263 263 264 264 264 264 265 265 266 266 266 266 266 266 265 265 264 263 263 264 264 263 263 263
258 258 258 258 258 259 259 260 260 260 260 260 260 260 260 260 260 260 261 261 261 261 262 262 262 262 262 262 262 263 265 264 264 264 264 263 262 262 262 262 262 262 262
258 258 258 258 257 258 258 258 259 259 259 260 260 260 260 260 260 260 260 260 260 260 260 260 260 260 260 260 260 261 262 263 261 261 261 261 260 260 260 260 260 260 260
Wind_Speed
12 11 10 10 11 10 10 12 12 10 8 9 9 9 9 9 11 12 13 13 15 14 13 14 15 13 10 9 7 6 6 4 4 2 6 8 12 11 9 8 5 5 6
11 9 9 10 9 9 10 10 10 11 11 9 8 7 9 9 10 11 13 12 16 16 16 15 16 11 15 12 10 11 9 7 4 6 4 5 8 11 10 9 6 4 4
10 10 9 9 9 9 9 9 10 10 11 10 9 8 9 9 10 11 13 14 15 16 15 16 16 16 15 13 12 11 9 5 5 5 4 4 3 8 8 7 8 7 5
10 9 8 8 8 9 9 8 8 9 10 10 10 9 9 10 10 11 11 13 14 16 16 16 16 18 18 17 15 15 12 10 10 7 5 7 7 8 7 7 6 4 5
10 10 10 9 9 8 9 10 9 9 9 10 11 10 10 9 7 10 12 13 14 16 16 17 17 18 23 21 13 15 15 13 10 11 8 6 9 7 14 9 8 6 6
9 9 9 9 9 9 9 9 9 9 10 9 10 10 11 8 15 18 15 13 15 16 17 16 16 18 21 26 29 26 21 18 17 13 13 13 14 11 11 10 8 7 6
10 11 10 10 10 10 10 11 11 11 11 11 12 11 11 11 18 21 21 12 13 16 19 16 14 13 16 17 25 28 28 31 28 19 20 18 15 15 14 13 12 10 4
10 12 12 11 12 11 11 11 12 12 13 13 13 13 13 11 20 21 21 15 15 18 19 19 17 17 16 16 16 19 22 20 23 17 19 16 14 16 17 15 14 8 4
13 13 13 12 12 12 13 15 14 12 13 14 14 16 15 15 22 22 19 14 15 18 16 17 18 18 22 25 18 19 19 20 18 23 18 17 20 28 21 12 11 11 5
14 15 14 14 13 14 14 15 14 14 16 14 17 16 19 20 25 26 21 11 15 13 15 17 25 22 25 25 18 17 19 19 14 13 11 15 18 20 28 17 14 13 6
14 15 16 16 16 15 15 15 15 16 17 18 19 19 19 19 21 29 28 14 13 13 13 12 12 25 30 31 29 18 21 13 19 14 13 11 11 13 12 11 13 12 9
15 17 17 17 14 15 19 18 18 17 19 20 19 18 16 19 24 26 29 28 24 14 15 12 12 23 28 30 26 29 30 24 11 13 13 14 13 12 11 11 11 8 6
17 17 17 18 17 16 17 18 16 16 15 16 15 16 17 14 15 29 30 28 27 19 14 20 27 24 25 25 29 29 28 15 12 15 16 15 14 12 12 12 10 10 7
17 17 15 16 16 16 14 14 14 14 15 16 16 16 15 15 15 13 11 10 17 17 20 17 19 20 20 18 15 20 14 13 13 14 13 11 11 12 11 11 11 10 8
15 15 15 13 15 15 14 13 14 15 17 16 15 16 16 17 16 23 22 13 9 12 12 10 10 11 11 11 11 12 12 11 13 12 11 10 10 12 10 10 10 10 7
17 14 13 13 13 13 14 14 23 31 34 35 37 30 18 33 39 39 38 36 34 31 12 11 11 10 11 12 12 11 12 13 11 12 10 10 11 11 11 10 10 10 9
16 17 14 15 14 14 14 14 16 17 31 33 34 35 36 34 37 38 37 35 34 30 16 12 11 10 10 10 10 10 11 8 11 10 12 11 10 10 15 12 11 10 8
16 21 14 14 13 13 14 14 14 15 16 16 22 27 29 33 32 32 32 29 17 20 15 12 11 10 10 9 9 10 8 10 10 11 12 11 12 12 12 12 11 10 9
14 13 14 13 13 15 14 14 14 15 15 15 15 20 19 28 28 29 30 15 16 11 10 10 8 9 9 8 7 8 12 12 12 11 11 10 10 11 10 10 10 10 10
13 19 18 13 13 13 13 13 13 14 14 13 12 14 12 12 11 12 8 8 9 8 9 7 7 8 8 9 8 8 9 10 10 10 11 10 10 10 10 10 10 9 7
11 13 17 13 12 12 12 13 13 13 13 12 12 13 24 14 12 8 8 9 10 9 5 6 6 8 8 9 9 9 10 9 10 10 11 10 10 10 9 9 9 8 8
11 11 11 12 12 12 12 12 11 11 11 11 9 10 20 8 8 7 6 7 7 7 7 8 6 6 7 9 10 10 10 10 10 10 11 11 10 10 9 9 9 7 7
10 11 12 11 11 14 11 10 10 10 11 10 10 9 9 8 8 8 8 8 9 9 8 7 7 8 7 8 7 8 10 10 10 11 11 11 10 9 8 9 8 7 7
10 11 11 11 11 11 11 11 10 12 11 10 10 9 8 8 8 9 8 8 8 9 8 8 8 10 9 8 7 7 8 9 9 10 13 11 10 10 8 8 7 7 6
9 10 10 10 10 11 11 11 11 10 10 10 10 9 9 8 8 9 8 8 8 9 10 9 8 11 12 13 11 12 14 15 12 11 8 10 11 10 8 6 7 5 5
9 10 9 9 9 9 10 10 11 10 10 10 9 10 10 9 9 10 9 10 9 10 11 9 12 14 14 12 13 13 15 15 12 12 8 8 8 6 6 6 7 3 4
Wind_Direction
12 5 3 10 9 3 358 355 354 339 329 312 303 290 270 250 241 234 235 233 226 222 224 227 223 212 213 200 198 203 207 186 163 30 169 161 182 178 163 187 197 186 210
3 358 1 3 3 3 356 354 349 342 333 325 307 292 285 268 260 247 239 235 237 231 224 219 224 214 217 208 205 201 202 202 159 152 175 157 188 191 176 176 189 197 223
353 353 351 356 358 360 352 344 342 337 333 334 325 311 291 282 271 259 250 243 239 239 233 227 220 215 216 209 206 202 196 170 194 143 151 160 158 184 188 175 185 183 205
335 336 339 338 337 346 337 331 329 331 330 328 325 314 297 287 278 269 258 249 250 248 239 232 228 221 219 212 207 202 193 183 182 172 157 169 170 170 188 193 202 187 187
324 326 325 321 324 321 323 322 319 318 315 314 312 310 302 289 281 284 274 261 252 252 247 242 230 225 227 219 212 208 195 192 188 187 187 173 180 163 193 184 194 179 195
315 307 307 310 310 310 308 309 299 309 306 299 296 294 293 285 284 274 265 270 270 256 251 246 240 237 225 225 224 214 205 195 197 191 198 204 196 188 178 185 175 170 198
300 301 301 302 300 304 308 311 308 305 302 300 294 291 288 286 285 281 272 255 249 258 260 251 243 235 232 228 223 223 219 216 210 200 201 205 191 183 170 179 187 192 189
278 285 289 293 293 292 299 298 302 303 301 295 290 291 286 282 284 282 274 266 255 250 249 253 249 243 231 221 221 220 221 219 221 213 214 204 200 179 183 183 178 161 96
284 286 281 279 279 283 292 297 297 298 294 292 287 286 280 278 279 279 275 265 259 256 252 250 249 246 241 224 214 221 221 223 220 228 221 214 187 177 167 147 166 161 174
300 297 293 286 279 277 276 279 283 287 284 288 285 280 279 277 273 274 272 259 260 257 250 247 241 243 241 240 221 218 223 217 197 205 213 212 190 182 174 177 168 175 148
307 302 297 292 288 284 282 280 282 284 282 280 280 280 277 269 271 269 267 257 253 259 256 251 242 238 232 229 225 217 224 215 206 194 189 188 186 184 179 179 175 171 157
313 305 302 300 298 295 292 287 283 281 278 276 277 276 272 270 263 262 259 255 256 256 258 259 253 243 233 229 222 222 224 222 194 195 188 186 189 187 179 174 163 153 138
313 307 304 301 297 293 290 287 285 280 276 275 273 273 273 273 272 270 265 260 256 254 251 253 253 249 230 227 225 229 217 209 195 194 196 196 190 179 164 153 141 131 131
304 302 302 298 296 292 285 283 282 280 278 275 273 272 274 272 267 265 260 257 255 260 264 263 254 251 214 212 218 221 219 211 200 198 200 189 173 166 158 153 145 150 139
300 299 297 292 290 291 284 283 278 275 274 275 271 272 274 271 269 277 277 265 250 244 266 266 251 236 203 199 210 207 207 214 198 187 196 177 165 160 159 154 148 149 164
301 297 293 293 289 287 286 283 276 282 284 283 282 277 271 270 272 270 269 269 270 271 251 249 255 229 212 205 202 201 202 213 192 178 171 161 166 158 150 153 153 161 165
294 296 293 291 289 288 286 287 290 285 284 284 285 284 280 277 275 273 271 269 268 265 247 245 246 224 219 209 199 196 196 177 166 157 148 157 156 160 157 158 160 161 160
291 289 287 287 286 287 286 285 284 287 290 288 283 282 283 281 279 278 275 271 261 254 244 232 241 217 208 202 198 195 163 149 154 154 154 162 161 163 161 161 162 159 157
296 291 289 287 286 286 286 284 283 283 282 284 288 286 282 284 283 275 263 254 261 227 236 219 229 203 191 187 168 155 158 160 161 158 154 157 158 161 153 153 149 152 146
300 297 293 289 290 291 289 286 285 283 281 280 282 283 290 292 283 279 257 265 267 257 239 204 189 181 174 143 150 149 150 153 151 148 146 147 146 144 143 143 140 145 152
301 302 305 299 300 298 296 294 292 287 281 273 274 279 285 283 280 285 286 271 259 220 167 121 129 134 142 142 142 149 147 144 142 138 138 136 134 134 136 135 138 151 152
311 309 310 307 305 307 311 308 317 318 317 324 303 303 330 346 342 348 4 350 35 76 105 129 135 135 135 137 138 138 138 136 135 135 132 132 131 130 135 137 141 147 147
316 319 319 318 319 320 319 325 329 334 336 341 343 347 356 359 360 5 10 9 26 37 42 60 85 89 88 98 109 127 136 143 143 137 137 135 133 135 138 140 146 150 154
328 329 327 328 329 328 332 334 338 346 350 352 354 359 4 6 11 17 20 22 35 42 48 57 64 77 87 90 97 106 115 121 124 128 129 132 130 131 133 137 145 153 156
337 334 333 333 334 337 337 341 346 352 359 4 4 6 9 17 24 28 30 35 43 50 54 61 68 73 73 83 90 99 108 104 104 108 112 115 120 125 129 132 145 154 168
339 340 340 340 342 344 347 348 353 357 5 10 13 15 17 23 28 33 35 42 47 51 57 56 62 69 73 71 82 90 93 95 91 93 98 108 119 122 129 141 155 157 181